Location: Knobs
(40.8333°S, 175.2333°E)
Time: 02:24:34
(UTC+00:00)

PSLV R/B - Pass Details

Date: 12 June 2024
Orbit: 578 x 607 km, 98.1° (Epoch: 22 July)

Event Time Altitude Azimuth Distance (km) Brightness Sun altitude
Rises 17:03:43 0° 26° (NNE) 2,868 7.4 -28.8°
Reaches altitude 10° 17:05:55 10° 31° (NNE) 1,972 6.6 -28.4°
Maximum altitude 17:10:05 52° 107° (ESE) 770 4.2 -27.6°
Enters shadow 17:10:10 52° 111° (ESE) 771 4.2 -27.6°
